Location: Oregon Trail
(41.1872°N, 102.0741°W)
Time: 19:11:16
(UTC+00:00)

Sich 1 - Pass Details

Date: 19 November 2019
Orbit: 595 x 625 km, 82.5° (Epoch: 07 December)

Event Time Altitude Azimuth Distance (km) Brightness Sun altitude
Rises 23:48:46 0° 358° (N) 2,876 6.3 -4.7°
Reaches altitude 10° 23:51:04 10° 5° (N) 1,972 5.4 -5.1°
Maximum altitude 23:55:16 46° 78° (ENE) 832 3.3 -5.9°
Drops below altitude 10° 23:59:29 10° 153° (SSE) 1,975 5.6 -6.6°
Sets 00:01:46 0° 159° (SSE) 2,880 6.5 -7.0°
